www.pogodaiklimat.ru

Погода и климат >> Архив погоды >> Испания >> Барселона


АРХИВ ПОГОДЫ в Барселоне

Время (UTC), дата Ветер
(напр.,м/с)
 
Видим.   Явления Облачность Т
(С)
Тd
(С)
f
(%)
Тe
(С)
Тes
(С)
Комфортность P
(гПа)
Po
(гПа)
Тmin
(С)
Tmax
(С)
R
(мм)
R24
(мм)
S
(см)
19 15.08 ЮЗ 3 21 км слаб. дождь н/о +27.3 +22.7 76 +36 +36 очень
душно
1018.4 1017.8
20 15.08 ЮЗ 3 24 км {дождь} н/о +27.1 +22.7 77 +36 +36 очень
душно
1019.0 1018.4
21 15.08 Ю 2 25 км 8/4 300 м
[Cu med, cong]
+26.9 +22.3 76 +35 +35 очень
душно
1019.4 1018.8
22 15.08 СВ 3 25 км н/о +26.1 +21.5 76 +33 +33 очень
душно
1019.6 1019.0
23 15.08 СВ 4 30 км н/о +25.8 +21.0 75 +32 +32 очень
душно
1019.6 1019.0
00 16.08 ЮВ 2 25 км 8/5 300 м
[Cu med, cong Ac As Ci fib]
+25.7 +22.0 80 +33 +33 очень
душно
1019.3 1018.7
01 16.08 Ю 3 19 км дождь н/о +25.5 +22.5 83 +33 +33 очень
душно
1018.7 1018.1
02 16.08 ЮВ 2 13 км слаб. дождь н/о +25.1 +22.4 85 +33 +33 очень
душно
1018.8 1018.2
03 16.08 С 2 15 км слаб. дождь 9/5 300 м
[Cu med, cong As op]
+24.2 +22.6 91 +32 +32 очень
душно
1018.4 1017.8 2
04 16.08 ЮВ 2 20 км морось {дождь} н/о +25.0 +22.5 86 +33 +33 очень
душно
1018.2 1017.6
05 16.08 В 5 15 км дождь н/о +23.5 +22.1 92 +30 +30 очень
душно
1018.4 1017.8
06 16.08 В 5 12 км дождь {ливн. осадки} 10/9 300 м
[Frnb As op]
+22.9 +21.5 92 +31 +31 очень
душно
1018.8 1018.2 +22.8 16
07 16.08 В 4 17 км слаб. дождь н/о +22.9 +21.5 92 +31 +31 очень
душно
1019.3 1018.7
08 16.08 В 4 13 км слаб. дождь н/о +23.0 +21.1 89 +31 +31 очень
душно
1019.6 1019.0
09 16.08 СВ 2 15 км слаб. морось {дождь} 10/10 300 м
[Cu Sc]
+23.4 +21.3 88 +31 +31 очень
душно
1019.8 1019.2 10
10 16.08 С 2 22 км {морось} н/о +23.6 +21.7 89 +30 +30 очень
душно
1019.7 1019.1
11 16.08 ЮВ 2 23 км слаб. дождь н/о +24.8 +21.0 79 +31 +31 очень
душно
1019.4 1018.8
12 16.08 ЮВ 3 20 км в посл. час морось 10/10 300 м
[Cu Sc]
+25.8 +21.6 78 +33 +33 очень
душно
1018.6 1018.0 0.2
13 16.08 Ю 5 23 км н/о +27.5 +23.3 78 +37 +37 очень
душно
1017.6 1017.0
14 16.08 З 7 28 км н/о +28.1 +22.4 71 +37 +37 очень
душно
1016.9 1016.3
15 16.08 З 8 25 км 3/3 300 м
[Sc]
+28.5 +22.7 71 +38 +39 очень
душно
1016.5 1015.9 0.0
16 16.08 З 7 27 км н/о +28.5 +22.1 68 +37 +37 очень
душно
1015.8 1015.2
17 16.08 З 7 30 км н/о +27.9 +22.5 72 +37 +37 очень
душно
1015.2 1014.6
18 16.08 З 7 30 км 3/1 300 м
[Sc Ci fib]
+27.0 +22.1 75 +35 +35 очень
душно
1015.3 1014.7 +28.7
19 16.08 З 6 29 км н/о +26.1 +22.4 80 +34 +34 очень
душно
1015.8 1015.2
20 16.08 З 5 30 км н/о +25.8 +22.5 82 +34 +34 очень
душно
1016.4 1015.8
21 16.08 З 2 23 км 4/1 300 м
[Sc Ac trans Cs]
+24.8 +22.3 86 +32 +32 очень
душно
1016.9 1016.3
22 16.08 З 2 25 км н/о +24.9 +22.4 86 +33 +33 очень
душно
1016.9 1016.3
23 16.08 С 1 30 км н/о +24.3 +21.8 86 +31 +31 очень
душно
1017.0 1016.4
00 17.08 С 3 2800 м 4/1 300 м
[Sc Cs]
+23.5 +20.6 84 +29 +29 душно 1016.9 1016.3
01 17.08 С 2 18 км н/о +22.9 +20.4 86 +30 +30 очень
душно
1016.6 1016.0
02 17.08 С 2 20 км н/о +23.0 +20.7 87 +30 +30 очень
душно
1016.2 1015.6
03 17.08 С 4 17 км 4/4 300 м
[]
+23.0 +21.1 89 +31 +31 очень
душно
1016.1 1015.5
04 17.08 С 1 16 км н/о +22.7 +21.0 90 +30 +30 очень
душно
1015.9 1015.3
05 17.08 С 3 18 км н/о +22.5 +20.6 89 +29 +29 очень
душно
1016.0 1015.4
06 17.08 С 3 1900 м 1/1 300 м
[Cu Sc Ci sp]
+23.1 +20.1 83 +30 +31 очень
душно
1016.2 1015.6 +22.4
07 17.08 С 3 18 км н/о +24.8 +20.9 79 +31 +31 очень
душно
1016.6 1016.0
08 17.08 ЮЗ 2 24 км н/о +27.5 +23.3 78 +37 +37 очень
душно
1016.6 1016.0
09 17.08 ЮЗ 4 35 км 1/1 300 м
[Cu hum Ci fib]
+28.0 +23.4 76 +38 +45 очень
душно
1016.7 1016.1
10 17.08 ЮЗ 5 21 км н/о +28.4 +23.4 74 +38 +38 очень
душно
1016.7 1016.1
11 17.08 ЮЗ 5 30 км н/о +28.9 +23.9 74 +40 +40 очень
душно
1016.4 1015.7
12 17.08 ЮЗ 6 26 км 3/3 300 м
[Cu hum]
+28.9 +23.3 72 +39 +44 очень
душно
1016.1 1015.4
13 17.08 ЮЗ 7 28 км н/о +29.3 +23.0 69 +39 +39 очень
душно
1015.8 1015.1
14 17.08 ЮЗ 7 30 км н/о +28.9 +23.0 71 +39 +39 очень
душно
1015.4 1014.7
15 17.08 ЮЗ 6 30 км 3/3 300 м
[Cu hum]
+29.3 +22.4 66 +38 +41 очень
душно
1015.1 1014.4
16 17.08 ЮЗ 6 30 км н/о +28.9 +22.6 69 +38 +38 очень
душно
1014.9 1014.2
17 17.08 ЮЗ 6 30 км н/о +28.6 +22.4 69 +37 +37 очень
душно
1014.4 1013.7
18 17.08 ЮЗ 5 35 км 1/1 600 м
[Cu hum]
+27.9 +22.4 72 +37 +37 очень
душно
1014.1 1013.5 +29.7
19 17.08 ЮЗ 3 30 км н/о +26.8 +22.6 78 +35 +35 очень
душно
1014.1 1013.5
20 17.08 ЮЗ 3 24 км н/о +26.7 +23.0 80 +36 +36 очень
душно
1014.4 1013.8
21 17.08 З 2 30 км 4/1 300 м
[St]
+26.3 +23.2 83 +35 +35 очень
душно
1014.5 1013.9
22 17.08 СЗ 1 28 км н/о +24.9 +21.4 81 +32 +32 очень
душно
1014.6 1014.0
23 17.08 С 2 27 км н/о +24.5 +21.1 81 +31 +31 очень
душно
1014.6 1014.0
00 18.08 С 3 30 км 5/1 300 м
[St]
+24.1 +20.8 82 +30 +30 очень
душно
1014.4 1013.8
01 18.08 С 3 23 км н/о +23.8 +20.9 84 +30 +30 очень
душно
1014.3 1013.7
02 18.08 С 3 30 км н/о +23.2 +20.6 85 +31 +31 очень
душно
1013.9 1013.3
03 18.08 С 4 27 км 5/1 300 м
[St]
+22.9 +20.4 86 +30 +30 очень
душно
1013.7 1013.1
04 18.08 С 4 20 км н/о +22.9 +20.2 85 +30 +30 очень
душно
1013.2 1012.6
05 18.08 С 4 19 км н/о +23.1 +20.4 85 +30 +30 очень
душно
1013.1 1012.5
06 18.08 С 4 2700 м 4/1 300 м
[Cu Sc Ac trans Cs]
+23.5 +20.6 84 +29 +30 душно 1013.1 1012.5 +22.8
07 18.08 С 3 23 км н/о +25.3 +21.4 79 +32 +32 очень
душно
1013.0 1012.4
08 18.08 СЗ 1 30 км н/о +27.7 +23.0 76 +37 +37 очень
душно
1013.0 1012.4
09 18.08 ЮЗ 4 18 км 3/3 300 м
[Cu Sc Ac trans]
+28.5 +23.5 74 +39 +44 очень
душно
1013.2 1012.5
10 18.08 ЮЗ 4 28 км н/о +28.8 +23.9 75 +40 +40 очень
душно
1013.3 1012.6
11 18.08 ЮЗ 5 29 км н/о +29.1 +24.2 75 +41 +41 опасность
перегрева
1013.2 1012.5
12 18.08 ЮЗ 6 22 км 4/3 300 м
[Cu Sc Ac cast]
+29.4 +23.9 72 +40 +44 очень
душно
1012.9 1012.2
13 18.08 ЮЗ 7 20 км н/о +29.7 +23.6 70 +41 +41 опасность
перегрева
1012.7 1012.0
14 18.08 ЮЗ 7 21 км н/о +29.7 +24.0 72 +41 +41 опасность
перегрева
1012.2 1011.5
15 18.08 ЮЗ 7 30 км 1/1 300 м
[Cu hum]
+29.8 +23.2 68 +40 +43 очень
душно
1012.0 1011.3
16 18.08 ЮЗ 5 30 км н/о +29.3 +23.7 72 +40 +40 очень
душно
1011.8 1011.1
17 18.08 ЮЗ 4 30 км н/о +28.9 +23.4 72 +39 +39 очень
душно
1011.5 1010.8
18 18.08 Ю 3 22 км 8/1 300 м
[St Cs]
+27.7 +23.8 79 +38 +38 очень
душно
1011.6 1010.9 +30.0
19 18.08 Ю 2 24 км н/о +27.2 +23.9 82 +37 +37 очень
душно
1011.7 1011.1
20 18.08 ЮВ 1 30 км н/о +27.0 +22.8 78 +36 +36 очень
душно
1012.5 1011.9
21 18.08 В 3 20 км 5/1 300 м
[St]
+26.8 +24.1 85 +37 +37 очень
душно
1013.4 1012.8
22 18.08 В 3 21 км н/о +26.7 +24.3 87 +37 +37 очень
душно
1013.9 1013.3
23 18.08 В 4 22 км н/о +26.6 +24.1 86 +37 +37 очень
душно
1014.1 1013.5
00 19.08 В 4 22 км {дождь} 6/1 300 м
[St]
+26.1 +23.6 86 +35 +35 очень
душно
1014.1 1013.5
01 19.08 С 3 18 км н/о +25.4 +22.9 86 +34 +34 очень
душно
1014.3 1013.7
02 19.08 С 3 17 км н/о +25.1 +22.6 86 +33 +33 очень
душно
1014.3 1013.7
03 19.08 В 5 14 км 5/1 300 м
[St Ac trans]
+25.8 +23.7 88 +35 +35 очень
душно
1014.1 1013.5
04 19.08 В 6 14 км н/о +25.6 +23.6 89 +35 +35 очень
душно
1014.1 1013.5
05 19.08 В 6 14 км н/о +25.5 +23.4 88 +34 +34 очень
душно
1014.3 1013.7
06 19.08 В 6 19 км 4/1 300 м
[Cu Sc Ac trans]
+26.0 +23.1 84 +35 +35 очень
душно
1014.7 1014.1 +24.9
07 19.08 В 8 24 км н/о +26.4 +22.3 78 +34 +34 очень
душно
1015.3 1014.7
08 19.08 В 9 16 км н/о +26.6 +22.7 79 +35 +35 очень
душно
1015.8 1015.2
09 19.08 В 8 20 км 6/6 300 м
[Cu Sc Cc]
+27.2 +21.3 70 +34 +35 очень
душно
1016.5 1015.9
10 19.08 В 7 30 км н/о +28.0 +20.3 63 +34 +34 очень
душно
1017.0 1016.4
11 19.08 В 8 30 км н/о +28.5 +20.2 61 +35 +35 очень
душно
1016.9 1016.3
12 19.08 В 8 25 км 5/4 600 м
[Cu Sc Ac trans Cc]
+28.7 +20.2 60 +35 +37 очень
душно
1017.0 1016.4
13 19.08 В 9 30 км н/о +28.5 +20.3 61 +35 +35 очень
душно
1017.0 1016.4
14 19.08 В 9 30 км н/о +28.0 +19.6 60 +34 +34 очень
душно
1016.7 1016.1
15 19.08 В 9 25 км 4/1 600 м
[Cu hum Ac cast Cc]
+28.5 +19.4 58 +34 +35 очень
душно
1016.6 1016.0
16 19.08 В 8 30 км н/о +27.7 +20.1 63 +34 +34 очень
душно
1016.4 1015.8
17 19.08 В 8 30 км н/о +26.9 +20.7 69 +34 +34 очень
душно
1016.3 1015.7
18 19.08 В 8 25 км 5/1 600 м
[Sc Ac cast Cc]
+26.0 +20.8 73 +33 +33 очень
душно
1016.5 1015.9 +28.9
19 19.08 В 7 30 км н/о +25.6 +20.8 75 +32 +32 очень
душно
1016.8 1016.2
20 19.08 В 8 30 км н/о +25.5 +20.3 73 +31 +31 очень
душно
1017.3 1016.7
21 19.08 В 8 30 км 9/6 300 м
[Cu Sc Ac cast Ci fib]
+25.6 +19.8 70 +31 +31 очень
душно
1017.5 1016.9
22 19.08 В 8 30 км н/о +25.6 +19.7 70 +31 +31 очень
душно
1017.2 1016.6
23 19.08 В 8 30 км н/о +25.7 +19.1 67 +31 +31 очень
душно
1017.2 1016.6
00 20.08 В 8 25 км 9/9 600 м
[Cu Sc]
+25.8 +18.2 63 +30 +30 душно 1017.1 1016.5
01 20.08 В 7 30 км н/о +25.6 +17.5 61 +30 +30 душно 1017.3 1016.7
02 20.08 В 6 30 км н/о +25.6 +17.8 62 +30 +30 душно 1017.1 1016.5
03 20.08 В 7 30 км 9/9 600 м
[Cu Sc]
+25.7 +17.8 62 +30 +30 душно 1016.8 1016.2
04 20.08 В 6 30 км н/о +25.4 +17.4 61 +29 +29 душно 1016.7 1016.1
05 20.08 В 5 30 км н/о +25.3 +17.5 62 +29 +29 душно 1017.3 1016.7
06 20.08 В 5 30 км 8/5 1000 м
[Cu Sc Ac trans Cc]
+25.3 +17.9 64 +30 +30 душно 1017.2 1016.6 +24.9
07 20.08 В 7 30 км н/о +26.0 +17.6 60 +30 +30 душно 1017.3 1016.7
08 20.08 В 9 30 км н/о +26.9 +16.9 54 +31 +31 душно 1017.5 1016.9
09 20.08 В 8 30 км 9/5 600 м
[Cu Sc Ac trans Cs]
+27.1 +16.5 52 +31 +31 душно 1018.4 1017.8
10 20.08 В 9 30 км н/о +26.6 +18.0 59 +31 +31 душно 1018.9 1018.3
11 20.08 В 5 30 км н/о +27.0 +17.8 57 +31 +31 душно 1019.8 1019.2
12 20.08 СЗ 4 30 км 10/1 600 м
[Cu Sc As trans]
+27.4 +17.1 53 +31 +36 душно 1019.5 1018.9
13 20.08 С 2 30 км 9/1 600 м
[Cu Sc As trans]
+28.1 +16.5 49 +32 +38 душно 1019.8 1019.2
14 20.08 ЮВ 6 30 км н/о +27.4 +19.4 62 +33 +33 очень
душно
1019.2 1018.6
15 20.08 ЮВ 6 23 км 9/1 600 м
[Cu Sc Ac As]
+27.3 +19.9 64 +33 +34 очень
душно
1019.0 1018.4
16 20.08 ЮВ 4 30 км н/о +27.9 +18.9 58 +33 +33 очень
душно
1019.0 1018.4
17 20.08 ЮВ 5 29 км н/о +27.0 +19.2 62 +32 +32 очень
душно
1019.5 1018.9
18 20.08 ЮВ 6 24 км 8/1 600 м
[Cu Sc Ac trans Cs]
+25.6 +18.4 64 +30 +30 душно 1019.8 1019.2 +28.3
19 20.08 В 3 30 км н/о +25.7 +18.1 63 +30 +30 душно 1020.4 1019.8
20 20.08 СВ 3 30 км н/о +25.3 +17.7 63 +30 +30 душно 1020.8 1020.2
21 20.08 СЗ 2 25 км 5/5 1000 м
[Sc Ac trans]
+25.3 +17.9 64 +30 +30 душно 1021.1 1020.5
22 20.08 С 3 23 км н/о +24.2 +18.4 70 +29 +29 душно 1021.1 1020.5
23 20.08 С 3 30 км н/о +24.3 +17.5 66 +28 +28 душно 1021.2 1020.6
00 21.08 С 5 25 км 6/6 1000 м
[Cu Sc]
+23.7 +17.1 67 +28 +28 душно 1021.1 1020.5
01 21.08 С 6 30 км н/о +22.6 +17.1 71 +27 +27 душно 1020.6 1020.0
02 21.08 С 3 30 км н/о +22.1 +17.2 74 +27 +27 душно 1020.6 1020.0
03 21.08 С 4 25 км 3/3 1000 м
[Cu Sc]
+21.9 +17.3 75 +26 +26 душно 1020.6 1020.0
04 21.08 С 4 29 км н/о +21.2 +17.0 77 +25 +25 комфорт 1020.2 1019.6
05 21.08 С 4 30 км н/о +20.7 +16.9 79 +24 +24 комфорт 1020.5 1019.9
06 21.08 С 4 28 км 1/1 1000 м
[Sc diur, vesp Ci fib]
+21.3 +17.1 77 +25 +25 комфорт 1020.7 1020.1 +20.3
07 21.08 С 4 30 км н/о +22.9 +17.1 70 +28 +28 душно 1020.7 1020.1
08 21.08 С 5 30 км н/о +24.9 +17.0 62 +29 +29 душно 1020.4 1019.8
09 21.08 С 3 30 км 1/1 1000 м
[Sc diur, vesp Ci fib]
+26.4 +17.2 57 +30 +38 душно 1020.2 1019.6
10 21.08 ЮЗ 5 30 км н/о +27.2 +18.3 58 +32 +32 очень
душно
1020.1 1019.5
11 21.08 ЮЗ 5 30 км н/о +27.3 +19.3 62 +33 +33 очень
душно
1019.6 1019.0
12 21.08 ЮЗ 6 30 км 1/1 600 м
[Cu hum Ci fib]
+27.5 +18.7 59 +33 +38 очень
душно
1019.1 1018.5
13 21.08 ЮЗ 5 30 км н/о +27.8 +18.6 57 +33 +33 очень
душно
1018.8 1018.2
14 21.08 ЮЗ 6 30 км н/о +28.2 +19.9 61 +34 +34 очень
душно
1018.5 1017.9
15 21.08 ЮЗ 5 25 км 8/3 600 м
[Cu hum Ac trans Cs]
+28.0 +20.0 62 +34 +37 очень
душно
1018.3 1017.7
16 21.08 ЮЗ 5 30 км н/о +27.3 +20.1 65 +34 +34 очень
душно
1018.8 1018.2
17 21.08 ЮЗ 4 30 км н/о +26.9 +20.5 68 +33 +33 очень
душно
1018.5 1017.9
18 21.08 ЮЗ 4 30 км 9/3 600 м
[Cu hum Ac trans Cs]
+26.1 +20.7 72 +33 +33 очень
душно
1018.6 1018.0 +28.5
19 21.08 ЮЗ 2 30 км н/о +25.8 +20.9 74 +32 +32 очень
душно
1018.9 1018.3
20 21.08 ЮЗ 2 30 км н/о +25.8 +21.0 75 +32 +32 очень
душно
1019.4 1018.8
21 21.08 З 2 30 км 9/5 600 м
[Cu med, cong]
+25.6 +20.8 75 +32 +32 очень
душно
1019.7 1019.1
22 21.08 З 3 30 км н/о +25.6 +20.6 74 +32 +32 очень
душно
1019.5 1018.9
23 21.08 С 2 30 км н/о +25.6 +20.4 73 +32 +32 очень
душно
1019.3 1018.7
00 22.08 СЗ 3 30 км 9/1 600 м
[Cu Sc]
+25.2 +20.5 75 +31 +31 очень
душно
1018.9 1018.3
01 22.08 С 2 22 км н/о +25.0 +20.5 76 +31 +31 очень
душно
1018.4 1017.8
02 22.08 СЗ 2 28 км н/о +24.9 +20.4 76 +31 +31 очень
душно
1019.0 1018.4
03 22.08 СВ 1 19 км 9/1 600 м
[St]
+24.5 +20.5 78 +30 +30 очень
душно
1018.8 1018.2
04 22.08 С 3 24 км н/о +24.2 +20.5 80 +30 +30 очень
душно
1019.0 1018.4
05 22.08 С 3 20 км н/о +23.5 +20.2 82 +29 +29 душно 1019.2 1018.6
06 22.08 С 3 22 км 5/1 300 м
[Cu Sc Ac As Cs]
+23.7 +20.2 81 +29 +30 душно 1019.5 1018.9 +23.2
07 22.08 С 3 22 км н/о +24.8 +20.6 77 +31 +31 очень
душно
1019.9 1019.3
08 22.08 З 1 30 км н/о +27.2 +19.2 62 +33 +33 очень
душно
1020.0 1019.4
09 22.08 ЮЗ 6 30 км 4/1 600 м
[Cu med, cong Ci fib]
+28.2 +19.1 58 +34 +37 очень
душно
1020.0 1019.4
10 22.08 ЮЗ 6 27 км н/о +28.5 +19.1 57 +34 +34 очень
душно
1020.1 1019.5
11 22.08 ЮЗ 7 26 км н/о +28.3 +19.8 60 +34 +34 очень
душно
1020.0 1019.4
12 22.08 ЮЗ 6 35 км 3/3 600 м
[Cu med, cong Ci fib]
+28.8 +19.9 59 +35 +39 очень
душно
1019.6 1019.0
13 22.08 ЮЗ 6 30 км н/о +29.2 +19.8 57 +35 +35 очень
душно
1019.6 1019.0
14 22.08 ЮЗ 6 30 км н/о +28.8 +19.1 56 +34 +34 очень
душно
1019.7 1019.1
15 22.08 Ю 4 30 км 3/3 1000 м
[Cu Sc]
+28.8 +19.1 56 +34 +38 очень
душно
1019.6 1019.0
16 22.08 Ю 4 30 км н/о +28.6 +19.2 57 +34 +34 очень
душно
1019.5 1018.9
17 22.08 ЮЗ 5 26 км н/о +27.9 +19.7 61 +34 +34 очень
душно
1019.4 1018.8
18 22.08 ЮЗ 4 30 км 3/1 1000 м
[Cu hum Ac trans Ci sp]
+27.4 +19.7 63 +33 +33 очень
душно
1019.6 1019.0 +29.2
19 22.08 ЮЗ 3 30 км н/о +26.5 +19.6 66 +32 +32 очень
душно
1020.1 1019.5

 

Местоположение метеостанции Барселона (Испания): широта 41.28 долгота 2.07 высота над уровнем моря 6 м.

В архиве по умолчанию представлена погода в Барселоне за последнюю неделю. Архивные данные за месяц целиком и за предыдущие месяцы, начиная с января 2011 года, Вы можете получить, выбрав интересующий диапазон дат из раскрывающегося списка и нажав кнопку "Ввод!".


*Определитесь, кто Вы:
робот инопланетянин человек

Внимание! Время в таблицах - всемирное. Для получения местного времени необходимо прибавить поправку, которая равна 1 ч.

Смотрите также архив погоды в соседних городах и на ближайших метеорологических станциях:

Погода в Барселоне - CMT (Испания) (16 км)
Погода в Ареньс-де-Маре (Испания) (52 км)
Погода в Манресе (Испания) (53 км)
Погода в Санта-Сусанне (Испания) (67 км)
Погода в Реусе (Испания) (77 км)
Погода в Тарреге (Испания) (87 км)
Погода в Жероне (Испания) (90 км)
Погода в Риполе (Испания) (102 км)
Погода в Вандельосе (Испания) (107 км)
Погода в Поркересе (Испания) (108 км)

Пояснения к столбцам:

Ветер - указаны скорость ветра в м/с - средняя за 10 мин, порывы в срок и между сроками (в фигурных скобках) и направление, откуда дует ветер: С - северный, СВ - северо-восточный, В - восточный, ЮВ - юго-восточный, Ю - южный, ЮЗ - юго-западный, З - западный, СЗ - северо-западный.
Видимость - горизонтальная дальность видимости в метрах или километрах. При видимости от 1 до 10 км при отсутствии осадков обычно наблюдается дымка, при ухудшении видимости до 1 км и менее - туман. В сухую погоду видимость может ухудшаться дымом, пылью или мглою.
Явления - указаны атмосферные явления, наблюдавшиеся в срок или в последний час перед сроком; фигурными скобками обозначены явления, наблюдавшиеся между сроками (за 1-3 часа до срока); квадратными скобками обозначены град или гололедные отложения с указанием их диаметра в мм.
Облачность - указаны через наклонную черту общая и нижняя облачность в баллах и высота нижней границы облаков в метрах; квадратными скобками обозначены формы облаков: Ci - перистые, Cs - перисто-слоистые, Cc - перисто-кучевые, Ac - высококучевые, As - высокослоистые, Sc - слоисто-кучевые, Ns - слоисто-дождевые, Cu - кучевые, Cb - кучево-дождевые. Подробнее классификацию облаков см. в Атласе облаков (PDF).
T - Температура воздуха - температура, измеренная на высоте 2 м над землей.
Td - Температура точки росы - температура, при понижении до которой содержащийся в воздухе водяной пар достигнет насыщения.
f - Относительная влажность воздуха - влажноcть воздуха, измеренная на высоте 2 м над землей.
Te - Эффективная температура - температура, которую ощущает одетый по сезону человек в тени. Характеристика душности погоды. При расчете учитывается влияние влажности воздуха и скорости ветра на теплоощущения человека.
Tes - Эффективная температура на солнце - температура, которую ощущает человек, с поправкой на солнечный нагрев. Характеристика знойности погоды. Зависит от высоты солнца над горизонтом, облачности и скорости ветра. Ночью, в пасмурную погоду, а также при ветре 12 м/с и более поправка равна нулю.
P - Атмосферное давление - приведенное к уровню моря атмосферное давление.
Po - Атмосферное давление - измеренное на уровне метеостанции атмосферное давление.
Tmin - Минимальная температура - минимум температуры воздуха на высоте 2 м над землей.
Tmax - Максимальная температура - максимум температуры воздуха на высоте 2 м над землей.
R - Количество осадков - Количество выпавших осадков за период времени, мм. При наведении курсора мыши на число - период времени, за который выпало указанное количество осадков.
R24 - Количество осадков - Количество выпавших осадков за 24 часа, мм.
S - Снежный покров - Высота снежного покрова, см. При наведении курсора мыши на число - состояние снежного покрова и степень покрытия местности в баллах.